Time,TemperatureF,DewpointF,PressureIn,WindDirection,WindDirectionDegrees,WindSpeedMPH,WindSpeedGustMPH,Humidity,HourlyPrecipIn,Conditions,Clouds,dailyrainin,SoftwareType,DateUTC
2013-09-22 00:04:00,66.9,66.0,29.66,SE,137,1.0,4.0,97,0.24,,,0.32,weatherlink.com 1.10,2013-09-22 04:04:00,
2013-09-22 00:19:00,66.9,66.0,29.65,NE,43,6.0,7.0,97,0.35,,,0.05,weatherlink.com 1.10,2013-09-22 04:19:00,
2013-09-22 00:34:00,66.8,66.0,29.65,West,277,0.0,4.0,96,0.36,,,0.17,weatherlink.com 1.10,2013-09-22 04:34:00,
2013-09-22 00:49:00,66.5,65.0,29.65,NW,314,1.0,6.0,96,0.38,,,0.21,weatherlink.com 1.10,2013-09-22 04:49:00,
2013-09-22 01:05:00,64.9,63.0,29.66,NW,310,2.0,9.0,93,0.48,,,0.39,weatherlink.com 1.10,2013-09-22 05:05:00,
2013-09-22 01:20:00,63.8,62.0,29.66,WSW,254,0.0,3.0,94,0.37,,,0.43,weatherlink.com 1.10,2013-09-22 05:20:00,
2013-09-22 01:35:00,63.3,62.0,29.66,WSW,245,3.0,3.0,95,0.30,,,0.47,weatherlink.com 1.10,2013-09-22 05:35:00,
2013-09-22 01:50:00,62.7,61.0,29.66,NNE,15,0.0,2.0,95,0.35,,,0.56,weatherlink.com 1.10,2013-09-22 05:50:00,
2013-09-22 02:05:00,62.4,61.0,29.65,NNE,15,0.0,1.0,96,0.19,,,0.58,weatherlink.com 1.10,2013-09-22 06:05:00,
2013-09-22 02:20:00,62.2,61.0,29.66,NNE,15,0.0,0.0,96,0.18,,,0.61,weatherlink.com 1.10,2013-09-22 06:20:00,
2013-09-22 02:35:00,62.1,61.0,29.65,NNE,15,0.0,1.0,97,0.18,,,0.65,weatherlink.com 1.10,2013-09-22 06:35:00,
2013-09-22 02:50:00,61.8,61.0,29.65,NNE,15,0.0,1.0,97,0.14,,,0.70,weatherlink.com 1.10,2013-09-22 06:50:00,
2013-09-22 03:05:00,61.8,61.0,29.67,WSW,240,2.0,2.0,97,0.13,,,0.71,weatherlink.com 1.10,2013-09-22 07:05:00,
2013-09-22 03:20:00,61.7,61.0,29.66,South,191,0.0,1.0,97,0.12,,,0.73,weatherlink.com 1.10,2013-09-22 07:20:00,
2013-09-22 03:35:00,61.4,61.0,29.64,South,191,0.0,0.0,97,0.09,,,0.75,weatherlink.com 1.10,2013-09-22 07:35:00,
2013-09-22 03:50:00,61.3,61.0,29.65,South,178,0.0,0.0,97,0.07,,,0.77,weatherlink.com 1.10,2013-09-22 07:50:00,
2013-09-22 04:05:00,61.3,61.0,29.66,South,169,1.0,2.0,97,0.06,,,0.77,weatherlink.com 1.10,2013-09-22 08:05:00,
2013-09-22 04:20:00,61.0,60.0,29.66,SSW,198,1.0,3.0,97,0.04,,,0.77,weatherlink.com 1.10,2013-09-22 08:20:00,
2013-09-22 04:35:00,60.7,60.0,29.66,SSW,201,0.0,1.0,97,0.02,,,0.77,weatherlink.com 1.10,2013-09-22 08:35:00,
2013-09-22 04:50:00,60.6,60.0,29.67,South,175,1.0,2.0,97,0.00,,,0.77,weatherlink.com 1.10,2013-09-22 08:50:00,
2013-09-22 05:05:00,60.4,60.0,29.67,South,175,0.0,2.0,97,0.00,,,0.77,weatherlink.com 1.10,2013-09-22 09:05:00,
2013-09-22 05:20:00,60.3,60.0,29.67,South,175,0.0,2.0,97,0.00,,,0.77,weatherlink.com 1.10,2013-09-22 09:20:00,
2013-09-22 05:35:00,60.1,59.0,29.68,West,267,0.0,3.0,97,0.00,,,0.77,weatherlink.com 1.10,2013-09-22 09:35:00,
2013-09-22 05:50:00,60.1,59.0,29.69,SSW,202,0.0,5.0,97,0.00,,,0.77,weatherlink.com 1.10,2013-09-22 09:50:00,
2013-09-22 06:05:00,60.0,59.0,29.68,West,267,0.0,2.0,97,0.00,,,0.77,weatherlink.com 1.10,2013-09-22 10:05:00,
2013-09-22 06:20:00,59.8,59.0,29.69,West,267,0.0,1.0,97,0.00,,,0.77,weatherlink.com 1.10,2013-09-22 10:20:00,
2013-09-22 06:35:00,59.6,59.0,29.69,West,267,0.0,1.0,97,0.00,,,0.77,weatherlink.com 1.10,2013-09-22 10:35:00,
2013-09-22 06:50:00,59.5,59.0,29.70,WSW,252,0.0,2.0,97,0.00,,,0.77,weatherlink.com 1.10,2013-09-22 10:50:00,
2013-09-22 07:05:00,59.4,59.0,29.70,NNW,344,0.0,3.0,97,0.00,,,0.77,weatherlink.com 1.10,2013-09-22 11:05:00,
2013-09-22 07:35:00,59.1,58.0,29.71,SSW,205,0.0,4.0,96,0.00,,,0.77,weatherlink.com 1.10,2013-09-22 11:35:00,
2013-09-22 07:50:00,59.1,58.0,29.71,SSW,205,0.0,2.0,96,0.00,,,0.77,weatherlink.com 1.10,2013-09-22 11:50:00,
2013-09-22 08:05:00,59.1,58.0,29.71,WSW,243,0.0,6.0,96,0.00,,,0.77,weatherlink.com 1.10,2013-09-22 12:05:00,
2013-09-22 08:20:00,59.2,58.0,29.72,SSW,202,1.0,6.0,96,0.00,,,0.77,weatherlink.com 1.10,2013-09-22 12:20:00,
2013-09-22 08:35:00,59.3,58.0,29.72,SW,228,0.0,4.0,95,0.00,,,0.77,weatherlink.com 1.10,2013-09-22 12:35:00,
2013-09-22 08:50:00,59.9,58.0,29.73,WSW,247,0.0,5.0,94,0.00,,,0.77,weatherlink.com 1.10,2013-09-22 12:50:00,
2013-09-22 09:05:00,60.2,58.0,29.73,North,355,1.0,5.0,92,0.00,,,0.77,weatherlink.com 1.10,2013-09-22 13:05:00,
2013-09-22 09:20:00,60.3,58.0,29.73,NNW,333,0.0,4.0,92,0.00,,,0.77,weatherlink.com 1.10,2013-09-22 13:20:00,
2013-09-22 09:35:00,60.6,58.0,29.74,North,350,4.0,4.0,90,0.00,,,0.77,weatherlink.com 1.10,2013-09-22 13:35:00,
2013-09-22 09:50:00,60.7,57.0,29.74,WSW,250,0.0,8.0,88,0.00,,,0.77,weatherlink.com 1.10,2013-09-22 13:50:00,
2013-09-22 10:05:00,61.0,58.0,29.74,WSW,250,0.0,4.0,89,0.00,,,0.77,weatherlink.com 1.10,2013-09-22 14:05:00,
2013-09-22 10:20:00,61.3,56.0,29.74,West,266,0.0,8.0,82,0.00,,,0.77,weatherlink.com 1.10,2013-09-22 14:20:00,
2013-09-22 10:36:00,62.0,52.0,29.75,North,10,3.0,6.0,70,0.00,,,0.77,weatherlink.com 1.10,2013-09-22 14:36:00,
2013-09-22 10:51:00,62.4,53.0,29.75,West,269,6.0,8.0,72,0.00,,,0.77,weatherlink.com 1.10,2013-09-22 14:51:00,
2013-09-22 11:06:00,62.7,54.0,29.75,SW,230,1.0,8.0,72,0.00,,,0.77,weatherlink.com 1.10,2013-09-22 15:06:00,
2013-09-22 11:21:00,62.7,53.0,29.75,North,360,1.0,9.0,70,0.00,,,0.77,weatherlink.com 1.10,2013-09-22 15:21:00,
2013-09-22 11:36:00,63.3,53.0,29.74,NW,307,2.0,7.0,68,0.00,,,0.77,weatherlink.com 1.10,2013-09-22 15:36:00,
2013-09-22 11:51:00,63.6,53.0,29.75,North,355,1.0,10.0,69,0.00,,,0.77,weatherlink.com 1.10,2013-09-22 15:51:00,
2013-09-22 12:06:00,63.5,53.0,29.75,West,276,2.0,8.0,68,0.00,,,0.77,weatherlink.com 1.10,2013-09-22 16:06:00,
2013-09-22 12:21:00,63.4,53.0,29.75,SSW,204,5.0,12.0,69,0.00,,,0.77,weatherlink.com 1.10,2013-09-22 16:21:00,
2013-09-22 12:36:00,63.9,53.0,29.75,North,355,5.0,11.0,68,0.00,,,0.77,weatherlink.com 1.10,2013-09-22 16:36:00,
2013-09-22 12:51:00,64.8,52.0,29.75,WSW,254,1.0,11.0,64,0.00,,,0.77,weatherlink.com 1.10,2013-09-22 16:51:00,
2013-09-22 13:06:00,64.2,52.0,29.75,NNW,329,2.0,10.0,64,0.00,,,0.77,weatherlink.com 1.10,2013-09-22 17:06:00,
2013-09-22 13:21:00,64.3,51.0,29.75,ENE,58,3.0,9.0,62,0.00,,,0.77,weatherlink.com 1.10,2013-09-22 17:21:00,
2013-09-22 13:36:00,64.1,52.0,29.75,NNW,345,3.0,6.0,66,0.00,,,0.77,weatherlink.com 1.10,2013-09-22 17:36:00,
2013-09-22 13:51:00,63.2,51.0,29.75,North,355,4.0,9.0,64,0.00,,,0.77,weatherlink.com 1.10,2013-09-22 17:51:00,
2013-09-22 14:06:00,63.4,50.0,29.76,NW,323,2.0,6.0,63,0.00,,,0.77,weatherlink.com 1.10,2013-09-22 18:06:00,
2013-09-22 14:21:00,63.0,50.0,29.76,SW,232,1.0,8.0,63,0.00,,,0.77,weatherlink.com 1.10,2013-09-22 18:21:00,
2013-09-22 14:36:00,63.5,51.0,29.76,NW,326,4.0,15.0,64,0.01,,,0.78,weatherlink.com 1.10,2013-09-22 18:36:00,
2013-09-22 14:51:00,62.3,51.0,29.76,NNW,344,0.0,6.0,67,0.01,,,0.78,weatherlink.com 1.10,2013-09-22 18:51:00,
2013-09-22 15:06:00,63.3,51.0,29.76,North,350,0.0,6.0,65,0.01,,,0.78,weatherlink.com 1.10,2013-09-22 19:06:00,
2013-09-22 15:21:00,62.8,51.0,29.76,NNW,336,1.0,4.0,66,0.01,,,0.78,weatherlink.com 1.10,2013-09-22 19:21:00,
2013-09-22 15:36:00,62.3,51.0,29.76,NNW,345,2.0,8.0,66,0.00,,,0.78,weatherlink.com 1.10,2013-09-22 19:36:00,
2013-09-22 15:51:00,62.5,51.0,29.77,SSE,155,0.0,7.0,66,0.00,,,0.78,weatherlink.com 1.10,2013-09-22 19:51:00,
2013-09-22 16:06:00,63.0,51.0,29.77,NW,319,0.0,6.0,64,0.00,,,0.78,weatherlink.com 1.10,2013-09-22 20:06:00,
2013-09-22 16:21:00,62.6,51.0,29.77,North,355,4.0,6.0,65,0.00,,,0.78,weatherlink.com 1.10,2013-09-22 20:21:00,
2013-09-22 16:51:00,63.2,50.0,29.77,ENE,57,4.0,5.0,63,0.00,,,0.78,weatherlink.com 1.10,2013-09-22 20:51:00,
2013-09-22 17:06:00,62.7,49.0,29.77,WSW,243,3.0,6.0,62,0.00,,,0.78,weatherlink.com 1.10,2013-09-22 21:06:00,
2013-09-22 17:21:00,61.7,50.0,29.78,NNW,336,2.0,5.0,66,0.00,,,0.78,weatherlink.com 1.10,2013-09-22 21:21:00,
2013-09-22 17:36:00,60.9,50.0,29.79,WNW,289,1.0,3.0,68,0.00,,,0.78,weatherlink.com 1.10,2013-09-22 21:36:00,
2013-09-22 17:51:00,60.5,51.0,29.79,NW,310,1.0,2.0,70,0.00,,,0.78,weatherlink.com 1.10,2013-09-22 21:51:00,
2013-09-22 18:07:00,59.6,49.0,29.80,North,350,0.0,4.0,67,0.00,,,0.78,weatherlink.com 1.10,2013-09-22 22:07:00,
2013-09-22 18:21:00,59.0,49.0,29.80,North,350,0.0,2.0,69,0.00,,,0.78,weatherlink.com 1.10,2013-09-22 22:21:00,
2013-09-22 18:36:00,58.4,49.0,29.80,North,350,2.0,3.0,70,0.00,,,0.78,weatherlink.com 1.10,2013-09-22 22:36:00,
2013-09-22 18:51:00,58.0,49.0,29.81,North,355,0.0,4.0,72,0.00,,,0.78,weatherlink.com 1.10,2013-09-22 22:51:00,
2013-09-22 19:06:00,57.5,48.0,29.81,North,350,0.0,8.0,70,0.00,,,0.78,weatherlink.com 1.10,2013-09-22 23:06:00,
2013-09-22 19:21:00,57.1,48.0,29.82,NNW,329,0.0,2.0,72,0.00,,,0.78,weatherlink.com 1.10,2013-09-22 23:21:00,
2013-09-22 19:37:00,56.5,48.0,29.83,SSW,194,0.0,4.0,72,0.00,,,0.78,weatherlink.com 1.10,2013-09-22 23:37:00,
2013-09-22 19:51:00,55.7,49.0,29.84,SSW,194,0.0,2.0,78,0.00,,,0.78,weatherlink.com 1.10,2013-09-22 23:51:00,
2013-09-22 20:06:00,54.8,48.0,29.84,SSW,195,0.0,1.0,78,0.00,,,0.78,weatherlink.com 1.10,2013-09-23 00:06:00,
2013-09-22 20:21:00,53.9,48.0,29.85,SSW,195,1.0,1.0,80,0.00,,,0.78,weatherlink.com 1.10,2013-09-23 00:21:00,
2013-09-22 20:37:00,53.3,47.0,29.86,SSW,195,1.0,3.0,80,0.00,,,0.78,weatherlink.com 1.10,2013-09-23 00:37:00,
2013-09-22 20:52:00,53.0,46.0,29.86,SSW,195,1.0,1.0,77,0.00,,,0.78,weatherlink.com 1.10,2013-09-23 00:52:00,
2013-09-22 21:07:00,53.1,45.0,29.87,North,355,0.0,5.0,73,0.00,,,0.78,weatherlink.com 1.10,2013-09-23 01:07:00,
2013-09-22 21:22:00,53.0,45.0,29.88,WNW,297,1.0,3.0,74,0.00,,,0.78,weatherlink.com 1.10,2013-09-23 01:22:00,
2013-09-22 21:37:00,52.9,44.0,29.88,North,360,0.0,9.0,73,0.00,,,0.78,weatherlink.com 1.10,2013-09-23 01:37:00,
2013-09-22 21:52:00,52.5,45.0,29.89,North,5,2.0,3.0,75,0.00,,,0.78,weatherlink.com 1.10,2013-09-23 01:52:00,
2013-09-22 22:07:00,52.3,44.0,29.89,NNW,342,0.0,2.0,74,0.00,,,0.78,weatherlink.com 1.10,2013-09-23 02:07:00,
2013-09-22 22:22:00,51.8,43.0,29.91,NNW,338,4.0,4.0,72,0.00,,,0.78,weatherlink.com 1.10,2013-09-23 02:22:00,
2013-09-22 22:37:00,52.3,43.0,29.91,NNW,336,3.0,6.0,70,0.00,,,0.78,weatherlink.com 1.10,2013-09-23 02:37:00,
2013-09-22 22:52:00,52.3,43.0,29.91,NNW,344,1.0,5.0,70,0.00,,,0.78,weatherlink.com 1.10,2013-09-23 02:52:00,
2013-09-22 23:07:00,52.3,42.0,29.91,NNW,338,0.0,8.0,69,0.00,,,0.78,weatherlink.com 1.10,2013-09-23 03:07:00,
2013-09-22 23:22:00,52.2,43.0,29.91,NW,319,1.0,9.0,70,0.00,,,0.78,weatherlink.com 1.10,2013-09-23 03:22:00,
2013-09-22 23:37:00,52.1,43.0,29.91,SW,229,0.0,4.0,71,0.00,,,0.78,weatherlink.com 1.10,2013-09-23 03:37:00,
2013-09-22 23:52:00,52.1,43.0,29.91,NNE,29,0.0,5.0,71,0.00,,,0.78,weatherlink.com 1.10,2013-09-23 03:52:00,